FW8778 Weather Reports


time (UTC)temp
C
wind
direction
speed
KPH
gust
KPH
rain 1hr
cm
rain 24hr
cm
rain mn
cm
humidity
%
barometer
mb
20260906073020 27 280 0.0 0.0 0.00 0.00 0.00 52 1018.7
20260906071517 26 359 0.0 0.0 0.00 0.00 0.00 53 1018.7
20260906070014 26 257 0.0 0.0 0.00 0.00 0.00 52 1018.6
20260906064514 26 283 0.0 0.0 0.00 0.00 0.00 51 1018.5
20260906063012 25 359 0.0 0.0 0.00 0.00 0.00 52 1018.3
20260906061514 25 273 0.0 0.0 0.00 0.00 0.00 54 1018.2
20260906060004 24 359 0.0 0.0 0.00 0.00 0.00 55 1018.2
20260906054508 23 359 0.0 0.0 0.00 0.00 0.00 55 1018.1
20260906053002 23 282 0.0 0.0 0.00 0.00 0.00 55 1018.1
20260906051501 23 279 0.0 0.0 0.00 0.00 0.00 55 1018.0
20260906050059 22 359 0.0 0.0 0.00 0.00 0.00 57 1017.9
20260906044559 22 359 0.0 0.0 0.00 0.00 0.00 57 1017.7
20260906043102 22 359 0.0 0.0 0.00 0.00 0.00 58 1017.7
20260906041558 22 359 0.0 0.0 0.00 0.00 0.00 58 1017.7
20260906040057 23 359 0.0 0.0 0.00 0.00 0.00 59 1017.7
20260906034604 23 359 0.0 0.0 0.00 0.00 0.00 60 1017.6
20260906033057 23 359 0.0 0.0 0.00 0.00 0.00 61 1017.6
20260906031556 22 293 0.0 0.0 0.00 0.00 0.00 61 1017.4
20260906030054 22 283 0.0 0.0 0.00 0.00 0.00 62 1017.5
20260906024553 23 288 0.0 0.0 0.00 0.00 0.00 62 1017.5
20260906023053 23 247 0.0 0.0 0.00 0.00 0.00 62 1017.6
20260906021553 23 292 0.0 0.0 0.00 0.00 0.00 61 1017.6
20260906020052 23 359 0.0 0.0 0.00 0.00 0.00 61 1017.6
20260906014554 23 297 0.0 0.0 0.00 0.00 0.00 61 1017.7
20260906013053 23 283 0.0 0.0 0.00 0.00 0.00 60 1017.8
20260906011547 23 290 0.0 0.0 0.00 0.00 0.00 58 1017.7
20260906010046 23 359 0.0 0.0 0.00 0.00 0.00 58 1017.8
20260906004546 23 287 0.0 0.0 0.00 0.00 0.00 58 1017.7
20260906003045 23 248 0.0 0.0 0.00 0.00 0.00 59 1017.7
20260906001543 23 301 0.0 0.0 0.00 0.00 0.00 60 1017.7
20260906000043 23 359 0.0 0.0 0.00 0.00 0.00 60 1018.0
20260905234543 23 359 0.0 0.0 0.00 0.00 0.00 59 1017.9
20260905233040 23 303 0.0 0.0 0.00 0.00 0.00 60 1017.9
20260905231541 23 291 0.0 0.0 0.00 0.00 0.00 60 1017.8
20260905230039 23 359 0.0 0.0 0.00 0.00 0.00 61 1017.8
20260905224538 24 287 0.0 0.0 0.00 0.00 0.00 61 1017.9
20260905223035 24 359 0.0 0.0 0.00 0.00 0.00 61 1017.8
20260905221532 24 359 0.0 0.0 0.00 0.00 0.00 63 1017.9
20260905220027 23 282 0.0 0.0 0.00 0.00 0.00 64 1017.9
20260905214526 24 359 0.0 0.0 0.00 0.00 0.00 65 1018.0
20260905213026 24 284 0.0 0.0 0.00 0.00 0.00 65 1017.8
20260905211527 24 282 0.0 0.0 0.00 0.00 0.00 66 1017.7
20260905210025 24 284 0.0 0.0 0.00 0.00 0.00 67 1017.8
20260905204526 24 359 0.0 0.0 0.00 0.00 0.00 67 1017.8
20260905203025 24 291 0.0 0.0 0.00 0.00 0.00 67 1017.7
20260905201525 24 359 0.0 0.0 0.00 0.00 0.00 67 1017.7
20260905200032 24 359 0.0 0.0 0.00 0.00 0.00 68 1017.8
20260905194524 24 359 0.0 0.0 0.00 0.00 0.00 67 1017.9
20260905193026 25 359 0.0 0.0 0.00 0.00 0.00 66 1018.0
20260905191531 25 359 0.0 0.0 0.00 0.00 0.00 67 1018.0
20260905190031 24 283 0.0 0.0 0.00 0.00 0.00 67 1017.9
20260905184528 24 359 0.0 0.0 0.00 0.00 0.00 73 1018.0
20260905183023 24 359 0.0 0.0 0.00 0.00 0.00 71 1017.8
20260905181522 25 293 0.0 0.0 0.00 0.00 0.00 70 1017.7
20260905180025 25 359 0.0 0.0 0.00 0.00 0.00 69 1017.7
20260905174525 25 359 0.0 0.0 0.00 0.00 0.00 70 1017.7
20260905173020 25 359 0.0 0.0 0.00 0.00 0.00 73 1017.5
20260905171520 25 359 0.0 0.0 0.00 0.00 0.00 74 1017.4
20260905170020 25 303 0.0 0.0 0.00 0.00 0.00 75 1017.4
20260905164519 25 359 0.0 0.0 0.00 0.00 0.00 77 1017.5
20260905163018 26 359 0.0 0.0 0.00 0.00 0.00 76 1017.6
20260905161517 26 359 0.0 0.0 0.00 0.00 0.00 75 1017.4
20260905160020 26 359 0.0 0.0 0.00 0.00 0.00 74 1017.5
20260905154515 26 359 0.0 0.0 0.00 0.00 0.00 72 1017.5
20260905153016 27 359 0.0 0.0 0.00 0.00 0.00 71 1017.4
20260905151515 27 359 0.0 0.0 0.00 0.00 0.00 69 1017.4
20260905150012 27 359 0.0 0.0 0.00 0.00 0.00 70 1017.3
20260905144521 27 359 0.0 0.0 0.00 0.00 0.00 69 1017.4
20260905143011 27 359 0.0 0.0 0.00 0.00 0.00 69 1017.6
20260905141510 27 359 0.0 0.0 0.00 0.00 0.00 67 1017.6
20260905140009 27 359 0.0 0.0 0.00 0.00 0.00 66 1017.6
20260905134509 28 359 0.0 0.0 0.00 0.00 0.00 67 1017.7
20260905133008 28 359 0.0 0.0 0.00 0.00 0.00 64 1017.8
20260905131508 28 359 0.0 0.0 0.00 0.00 0.00 61 1017.8
20260905130009 28 359 0.0 0.0 0.00 0.00 0.00 64 1017.8
20260905124517 28 359 0.0 0.0 0.00 0.00 0.00 66 1018.0
20260905123006 27 359 0.0 0.0 0.00 0.00 0.00 67 1018.1
20260905121507 28 359 0.0 0.0 0.00 0.00 0.00 67 1018.1
20260905120004 28 288 0.0 0.0 0.00 0.00 0.00 66 1018.2
20260905114504 28 359 0.0 0.0 0.00 0.00 0.00 63 1018.3
20260905113003 28 359 0.0 0.0 0.00 0.00 0.00 60 1018.4
20260905111505 28 359 0.0 0.0 0.00 0.00 0.00 57 1018.3
20260905110002 28 359 0.0 0.0 0.00 0.00 0.00 55 1018.2
20260905104502 28 359 0.0 0.0 0.00 0.00 0.00 53 1018.3
20260905103002 28 359 0.0 0.0 0.00 0.00 0.00 50 1018.4
20260905101601 28 359 0.0 0.0 0.00 0.00 0.00 50 1018.5
20260905100121 30 195 0.0 0.0 0.00 0.00 0.00 43 1018.6
20260905094559 30 186 0.0 0.0 0.00 0.00 0.00 43 1018.6
20260905093056 29 169 0.0 0.0 0.00 0.00 0.00 43 1018.8
20260905091558 29 359 0.0 0.0 0.00 0.00 0.00 41 1018.9
20260905090117 29 164 0.0 0.0 0.00 0.00 0.00 42 1019.0
20260905084552 28 157 0.0 0.0 0.00 0.00 0.00 43 1019.0
20260905083054 28 197 0.0 0.0 0.00 0.00 0.00 43 1019.0
20260905081557 28 359 0.0 0.0 0.00 0.00 0.00 42 1018.9
20260905080053 27 359 0.0 0.0 0.00 0.00 0.00 48 1018.8
20260905074542 27 359 0.0 0.0 0.00 0.00 0.00 46 1018.5